2023/07/17 00:00:00, 0.1,22.1
2023/07/17 00:10:00, 0.1,22.3
2023/07/17 00:20:00, 0.1,22.1
2023/07/17 00:30:00, 0.1,22.0
2023/07/17 00:40:00, 0.1,21.6
2023/07/17 00:50:00, 0.1,22.3
2023/07/17 01:00:00, 0.1,21.9
2023/07/17 01:10:00, 0.3,21.9
2023/07/17 01:20:00, 6.3,21.9
2023/07/17 01:30:00, 9.1,21.9
2023/07/17 01:40:00, 9.8,22.1
2023/07/17 01:50:00,10.2,21.9
2023/07/17 02:00:00, 9.6,21.4
2023/07/17 02:10:00, 9.0,21.4
2023/07/17 02:20:00, 8.8,21.5
2023/07/17 02:30:00,10.8,21.3
2023/07/17 02:40:00,13.0,21.2
2023/07/17 02:50:00,13.7,21.0
2023/07/17 03:00:00, 9.1,21.0
2023/07/17 03:10:00, 7.6,20.9
2023/07/17 03:20:00, 0.1,21.2
2023/07/17 03:30:00, 0.1,21.1
2023/07/17 03:40:00, 0.1,21.0
2023/07/17 03:50:00, 0.1,21.1
2023/07/17 04:00:00, 0.1,21.1
2023/07/17 04:10:00, 7.8,21.0
2023/07/17 04:20:00,12.3,20.6
2023/07/17 04:30:00,12.7,20.6
2023/07/17 04:40:00,12.8,20.4
2023/07/17 04:50:00,12.7,20.4
2023/07/17 05:00:00,12.7,20.4
2023/07/17 05:10:00,13.1,20.2
2023/07/17 05:20:00,13.9,20.4
2023/07/17 05:30:00,14.8,20.2
2023/07/17 05:40:00,15.3,20.4
2023/07/17 05:50:00,16.4,20.4
2023/07/17 06:00:00,16.5,20.8
2023/07/17 06:10:00,14.8,20.8
2023/07/17 06:20:00,12.7,21.1
2023/07/17 06:30:00,11.8,21.9
2023/07/17 06:40:00,11.0,22.7
2023/07/17 06:50:00,11.1,23.3
2023/07/17 07:00:00,11.7,23.8
2023/07/17 07:10:00,12.1,23.9
2023/07/17 07:20:00,12.3,24.0
2023/07/17 07:30:00,12.9,24.5
2023/07/17 07:40:00,13.0,25.0
2023/07/17 07:50:00, 8.0,25.2
2023/07/17 08:00:00,11.4,25.7
2023/07/17 08:10:00,12.8,26.4
2023/07/17 08:20:00,13.3,27.0
2023/07/17 08:30:00,13.3,27.6
2023/07/17 08:40:00,13.1,28.5
2023/07/17 08:50:00,12.8,29.5
2023/07/17 09:00:00,13.4,30.1
2023/07/17 09:10:00,10.9,30.7
2023/07/17 09:20:00, 0.5,30.8
2023/07/17 09:30:00, 0.2,31.3
2023/07/17 09:40:00, 0.3,31.6
2023/07/17 09:50:00, 0.0,32.0
2023/07/17 10:00:00,---,32.7
2023/07/17 10:10:00, 0.0,33.2
2023/07/17 10:20:00, 0.0,32.6
2023/07/17 10:30:00, 0.0,33.4
2023/07/17 10:40:00, 0.0,34.3
2023/07/17 10:50:00,---,34.4
2023/07/17 11:00:00,11.6,33.3
2023/07/17 11:10:00, 0.0,34.9
2023/07/17 11:20:00,---,35.0
2023/07/17 11:30:00,---,35.6
2023/07/17 11:40:00, 0.0,35.6
2023/07/17 11:50:00, 0.0,35.3
2023/07/17 12:00:00,---,35.3
2023/07/17 12:10:00, 6.9,34.6
2023/07/17 12:20:00, 9.0,36.6
2023/07/17 12:30:00, 7.5,35.3
2023/07/17 12:40:00, 6.7,36.7
2023/07/17 12:50:00, 8.0,36.8
2023/07/17 13:00:00, 7.4,37.1
2023/07/17 13:10:00, 6.8,35.2
2023/07/17 13:20:00, 5.2,34.9
2023/07/17 13:30:00, 6.6,34.6
2023/07/17 13:40:00, 6.1,34.3
2023/07/17 13:50:00, 9.4,34.0
2023/07/17 14:00:00, 5.3,34.6
2023/07/17 14:10:00, 2.7,34.3
2023/07/17 14:20:00, 5.4,33.8
2023/07/17 14:30:00,11.2,34.0
2023/07/17 14:40:00,13.4,33.2
2023/07/17 14:50:00,14.0,32.8
2023/07/17 15:00:00,14.1,32.2
2023/07/17 15:10:00,14.1,32.3
2023/07/17 15:20:00,13.5,32.5
2023/07/17 15:30:00,13.1,32.3
2023/07/17 15:40:00,13.1,32.3
2023/07/17 15:50:00,13.2,31.7
2023/07/17 16:00:00,13.0,32.0
2023/07/17 16:10:00,12.9,32.8
2023/07/17 16:20:00,12.7,32.4
2023/07/17 16:30:00,12.8,32.7
2023/07/17 16:40:00,13.0,32.8
2023/07/17 16:50:00,13.1,33.3
2023/07/17 17:00:00,13.1,32.8
2023/07/17 17:10:00,13.0,31.8
2023/07/17 17:20:00,12.5,32.1
2023/07/17 17:30:00,12.3,32.4
2023/07/17 17:40:00,12.5,30.1
2023/07/17 17:50:00,11.1,29.4
2023/07/17 18:00:00, 2.1,29.1
2023/07/17 18:10:00, 0.0,28.5
2023/07/17 18:20:00, 0.0,28.3
2023/07/17 18:30:00, 0.0,27.9
2023/07/17 18:40:00, 0.0,27.9
2023/07/17 18:50:00, 0.0,27.4
2023/07/17 19:00:00, 0.0,27.2
2023/07/17 19:10:00, 0.1,26.9
2023/07/17 19:20:00, 0.1,26.5
2023/07/17 19:30:00, 0.1,26.4
2023/07/17 19:40:00, 0.0,26.4
2023/07/17 19:50:00, 0.0,26.0
2023/07/17 20:00:00, 0.1,26.0
2023/07/17 20:10:00, 0.1,25.8
2023/07/17 20:20:00, 0.0,25.8
2023/07/17 20:30:00, 0.0,25.7
2023/07/17 20:40:00, 0.1,25.5
2023/07/17 20:50:00, 0.1,25.8
2023/07/17 21:00:00, 0.1,25.6
2023/07/17 21:10:00, 0.1,25.3
2023/07/17 21:20:00, 0.1,25.3
2023/07/17 21:30:00, 0.1,25.2
2023/07/17 21:40:00, 0.2,24.9
2023/07/17 21:50:00, 0.2,25.0
2023/07/17 22:00:00, 0.2,24.9
2023/07/17 22:10:00, 0.2,25.0
2023/07/17 22:20:00, 0.2,24.9
2023/07/17 22:30:00, 0.1,24.4
2023/07/17 22:40:00, 0.1,24.3
2023/07/17 22:50:00, 0.1,24.3
2023/07/17 23:00:00, 0.1,24.1
2023/07/17 23:10:00, 0.1,24.1
2023/07/17 23:20:00, 0.0,24.1
2023/07/17 23:30:00, 0.0,24.0
2023/07/17 23:40:00, 0.1,23.8
2023/07/17 23:50:00, 0.1,23.7
